• In Russia
  • List of Countries
  • For 7 days
  • Water Temperature
  • Satellite Maps
  • Weather Map
  • Weather Widgets
  • user-avatar
    Login

    Hourly Weather Taba

    Today, 26 May, Saturday

    Time Temperature Precipitation Wind Pressure Humidity
    00:00 +27°C° 0 mm 1 mps 691 mmHg 26%
    01:00 +27°C° 0 mm 1 mps 690 mmHg 26%
    02:00 +27°C° 0 mm 1 mps 690 mmHg 27%
    03:00 +26°C° 0 mm 1 mps 690 mmHg 28%
    04:00 +26°C° 0 mm 1 mps 690 mmHg 29%
    05:00 +25°C° 0 mm 1 mps 690 mmHg 29%
    06:00 +27°C° 0 mm 1 mps 690 mmHg 27%
    07:00 +28°C° 0 mm 1 mps 691 mmHg 25%
    08:00 +30°C° 0 mm 1 mps 691 mmHg 23%
    09:00 +31°C° 0 mm 2 mps 691 mmHg 21%
    10:00 +32°C° 0 mm 2 mps 691 mmHg 19%
    11:00 +35°C° 0 mm 3 mps 691 mmHg 17%
    12:00 +35°C° 0.1 mm 3 mps 691 mmHg 17%
    13:00 +35°C° 0.1 mm 3 mps 690 mmHg 17%
    14:00 +35°C° 0.1 mm 3 mps 690 mmHg 17%
    15:00 +35°C° 0.2 mm 3 mps 690 mmHg 18%
    16:00 +35°C° 0.2 mm 3 mps 690 mmHg 18%
    17:00 +34°C° 0.2 mm 3 mps 689 mmHg 19%
    18:00 +33°C° 0.2 mm 3 mps 690 mmHg 22%
    19:00 +31°C° 0.2 mm 3 mps 690 mmHg 25%
    20:00 +30°C° 0.2 mm 2 mps 690 mmHg 28%
    21:00 +29°C° 0 mm 2 mps 690 mmHg 32%
    22:00 +28°C° 0 mm 2 mps 690 mmHg 36%
    23:00 +28°C° 0 mm 2 mps 690 mmHg 40%

    Tomorrow, 27 May, Sunday

    Time Temperature Precipitation Wind Pressure Humidity
    00:00 +27°C° 0 mm 2 mps 690 mmHg 43%
    01:00 +26°C° 0 mm 2 mps 690 mmHg 47%
    02:00 +26°C° 0 mm 2 mps 689 mmHg 50%
    03:00 +25°C° 0 mm 2 mps 689 mmHg 52%
    04:00 +25°C° 0 mm 2 mps 689 mmHg 55%
    05:00 +24°C° 0 mm 2 mps 689 mmHg 57%
    06:00 +25°C° 0 mm 2 mps 690 mmHg 52%
    07:00 +26°C° 0 mm 2 mps 690 mmHg 48%
    08:00 +27°C° 0 mm 2 mps 690 mmHg 43%
    09:00 +29°C° 0 mm 2 mps 691 mmHg 37%
    10:00 +30°C° 0 mm 2 mps 691 mmHg 32%
    11:00 +32°C° 0 mm 2 mps 691 mmHg 26%
    12:00 +32°C° 0.1 mm 2 mps 691 mmHg 25%
    13:00 +32°C° 0.1 mm 2 mps 690 mmHg 23%
    14:00 +33°C° 0.1 mm 1 mps 690 mmHg 22%
    15:00 +32°C° 0.2 mm 1 mps 690 mmHg 23%
    16:00 +32°C° 0.2 mm 2 mps 690 mmHg 24%
    17:00 +32°C° 0.2 mm 2 mps 690 mmHg 24%
    18:00 +31°C° 0.2 mm 2 mps 690 mmHg 27%
    19:00 +30°C° 0.2 mm 2 mps 690 mmHg 29%
    20:00 +30°C° 0.2 mm 2 mps 691 mmHg 32%
    21:00 +29°C° 0 mm 2 mps 691 mmHg 35%
    22:00 +28°C° 0 mm 2 mps 691 mmHg 38%
    23:00 +28°C° 0 mm 2 mps 691 mmHg 41%

    Day after tomorrow, 28 May, Monday

    Time Temperature Precipitation Wind Pressure Humidity
    00:00 +27°C° 0 mm 2 mps 690 mmHg 45%
    01:00 +26°C° 0 mm 2 mps 690 mmHg 49%
    02:00 +26°C° 0 mm 3 mps 690 mmHg 54%
    03:00 +25°C° 0 mm 3 mps 690 mmHg 57%
    04:00 +25°C° 0 mm 2 mps 690 mmHg 61%
    05:00 +24°C° 0 mm 2 mps 690 mmHg 65%
    06:00 +25°C° 0 mm 2 mps 690 mmHg 62%
    07:00 +25°C° 0 mm 2 mps 690 mmHg 59%
    08:00 +26°C° 0 mm 2 mps 691 mmHg 56%
    09:00 +27°C° 0.1 mm 2 mps 691 mmHg 51%
    10:00 +28°C° 0.1 mm 2 mps 690 mmHg 47%
    11:00 +29°C° 0.1 mm 2 mps 690 mmHg 43%
    12:00 +30°C° 0 mm 3 mps 690 mmHg 37%
    13:00 +31°C° 0 mm 3 mps 690 mmHg 31%
    14:00 +34°C° 0 mm 3 mps 690 mmHg 25%
    15:00 +34°C° 0 mm 3 mps 690 mmHg 24%
    16:00 +34°C° 0 mm 3 mps 689 mmHg 23%
    17:00 +34°C° 0 mm 4 mps 689 mmHg 22%
    18:00 +32°C° 0 mm 4 mps 689 mmHg 27%
    19:00 +30°C° 0 mm 4 mps 690 mmHg 32%
    20:00 +29°C° 0 mm 4 mps 690 mmHg 36%
    21:00 +28°C° 0 mm 4 mps 690 mmHg 43%
    22:00 +26°C° 0 mm 4 mps 690 mmHg 50%
    23:00 +25°C° 0 mm 3 mps 690 mmHg 56%

    29 May, Tuesday

    Time Temperature Precipitation Wind Pressure Humidity
    00:00 +25°C° 0 mm 3 mps 690 mmHg 60%
    01:00 +24°C° 0 mm 3 mps 689 mmHg 63%
    02:00 +24°C° 0 mm 3 mps 689 mmHg 66%
    03:00 +23°C° 0 mm 2 mps 689 mmHg 68%
    04:00 +23°C° 0 mm 2 mps 689 mmHg 71%
    05:00 +21°C° 0 mm 2 mps 689 mmHg 73%
    06:00 +23°C° 0 mm 2 mps 690 mmHg 68%
    07:00 +24°C° 0 mm 2 mps 690 mmHg 63%
    08:00 +25°C° 0 mm 3 mps 690 mmHg 58%
    09:00 +26°C° 0 mm 3 mps 690 mmHg 52%
    10:00 +27°C° 0 mm 3 mps 690 mmHg 45%
    11:00 +29°C° 0 mm 3 mps 690 mmHg 39%
    12:00 +30°C° 0 mm 3 mps 690 mmHg 35%
    13:00 +31°C° 0 mm 3 mps 689 mmHg 32%
    14:00 +33°C° 0 mm 3 mps 689 mmHg 28%
    15:00 +31°C° 0 mm 3 mps 689 mmHg 28%
    16:00 +32°C° 0 mm 4 mps 689 mmHg 28%
    17:00 +32°C° 0 mm 4 mps 689 mmHg 27%
    18:00 +30°C° 0 mm 4 mps 689 mmHg 31%
    19:00 +29°C° 0 mm 5 mps 689 mmHg 35%
    20:00 +28°C° 0 mm 5 mps 690 mmHg 39%
    21:00 +27°C° 0 mm 5 mps 690 mmHg 45%
    22:00 +26°C° 0 mm 4 mps 690 mmHg 51%
    23:00 +25°C° 0 mm 4 mps 690 mmHg 58%

    30 May, Wednesday

    Time Temperature Precipitation Wind Pressure Humidity
    00:00 +23°C° 0 mm 4 mps 689 mmHg 59%
    01:00 +24°C° 0 mm 3 mps 689 mmHg 61%
    02:00 +22°C° 0 mm 3 mps 689 mmHg 63%
    03:00 +22°C° 0 mm 3 mps 689 mmHg 64%
    04:00 +21°C° 0 mm 2 mps 689 mmHg 65%
    05:00 +21°C° 0 mm 2 mps 689 mmHg 66%
    06:00 +23°C° 0 mm 2 mps 690 mmHg 61%
    07:00 +23°C° 0 mm 2 mps 690 mmHg 57%
    08:00 +24°C° 0 mm 2 mps 690 mmHg 52%
    09:00 +25°C° 0 mm 2 mps 690 mmHg 47%
    10:00 +27°C° 0 mm 2 mps 691 mmHg 42%
    11:00 +28°C° 0 mm 2 mps 691 mmHg 37%
    12:00 +29°C° 0 mm 3 mps 690 mmHg 34%
    13:00 +30°C° 0 mm 3 mps 690 mmHg 30%
    14:00 +31°C° 0 mm 3 mps 690 mmHg 27%
    15:00 +32°C° 0 mm 4 mps 690 mmHg 26%
    16:00 +30°C° 0 mm 4 mps 690 mmHg 26%
    17:00 +30°C° 0 mm 4 mps 690 mmHg 25%
    18:00 +30°C° 0 mm 4 mps 690 mmHg 27%
    19:00 +29°C° 0 mm 5 mps 691 mmHg 30%
    20:00 +28°C° 0 mm 5 mps 691 mmHg 32%
    21:00 +27°C° 0 mm 4 mps 691 mmHg 38%
    22:00 +26°C° 0 mm 4 mps 691 mmHg 43%
    23:00 +25°C° 0 mm 3 mps 691 mmHg 49%

    31 May, Thursday

    Time Temperature Precipitation Wind Pressure Humidity
    00:00 +24°C° 0 mm 3 mps 691 mmHg 51%
    01:00 +24°C° 0 mm 2 mps 690 mmHg 53%
    02:00 +23°C° 0 mm 2 mps 690 mmHg 55%
    03:00 +23°C° 0 mm 2 mps 690 mmHg 56%
    04:00 +23°C° 0 mm 2 mps 691 mmHg 57%
    05:00 +22°C° 0 mm 1 mps 691 mmHg 58%
    06:00 +23°C° 0 mm 2 mps 691 mmHg 53%
    07:00 +24°C° 0 mm 2 mps 691 mmHg 48%
    08:00 +25°C° 0 mm 2 mps 691 mmHg 43%
    09:00 +26°C° 0 mm 2 mps 692 mmHg 39%
    10:00 +27°C° 0 mm 2 mps 692 mmHg 35%
    11:00 +29°C° 0 mm 2 mps 692 mmHg 31%
    12:00 +30°C° 0 mm 3 mps 691 mmHg 28%
    13:00 +30°C° 0 mm 3 mps 691 mmHg 26%
    14:00 +31°C° 0 mm 3 mps 691 mmHg 23%
    15:00 +31°C° 0 mm 3 mps 691 mmHg 23%
    16:00 +31°C° 0 mm 3 mps 691 mmHg 23%
    17:00 +31°C° 0 mm 3 mps 690 mmHg 23%
    18:00 +32°C° 0 mm 4 mps 691 mmHg 25%
    19:00 +30°C° 0 mm 4 mps 691 mmHg 27%
    20:00 +29°C° 0 mm 4 mps 691 mmHg 29%
    21:00 +28°C° 0 mm 4 mps 691 mmHg 32%
    22:00 +27°C° 0 mm 3 mps 691 mmHg 36%
    23:00 +26°C° 0 mm 3 mps 691 mmHg 39%
    Show more